Content
SEND FEEDBACK

Daily
Averages
Monthly
Summary
United States of America

OXFORD, NORTH CAROLINA


Home > North America > United States > North Carolina
Elevation: 430 feet     Latitude: 36 17N     Longitude: 078 37W

WEATHER
 
SELECT A DAY
Number of Records: 289,878;   Date Range: 5/15/02 - 7/7/14
 
SHARE

PRINT THIS DATA

[ ← Previous Day ]
WEATHER ALMANAC - JANUARY 31, 2013
[ Next Day → ]
[ °C ]   °F
Weather ElementAverageHighLow
Temperature33.6 °F49.1 °F (5:55 am) (12:35 am)
Dewpoint16.5 °F41.2 °F (5:35 am) (7:00 pm)
Humidity43.8 %76 % (5:35 am)28 % (2:55 pm)
Wind Speed11.8 mph20.7 mph (3:15 pm)
Wind Gust31.1 mph (10:35 am)
Weather ElementAverage
Visibility10 mi
Wind DirectionSSW (200.1 °)

Weather ElementTotal
Precipitation---
Heating Degree Days40.5 (Base 65)
Averaged from 71 records on January 31, 2013
WEATHER CONDITIONS BREAKOUT
WIND DIRECTION BREAKOUT
WEATHER BY HOUR - JANUARY 31, 2013
[ °C ]   °F
Local TimeTemperatureDewpointHumidityBarometerVisibilityWind DirectionWind SpeedGust SpeedPrecipitationEventsConditions
12:35 AM0.0 °F0.0 °FNorth
12:55 AM0.0 °F0.0 °FNorth
1:15 AM0.0 °F0.0 °FNorth
1:35 AM0.0 °F0.0 °FNorth
1:55 AM0.0 °F0.0 °FNorth
2:15 AM0.0 °F0.0 °FNorth
2:35 AM0.0 °F0.0 °FNorth
2:55 AM0.0 °F0.0 °FNorth
3:15 AM0.0 °F0.0 °FNorth
3:35 AM0.0 °F0.0 °FNorth
3:55 AM0.0 °F0.0 °FNorth
4:15 AM0.0 °F0.0 °FNorth
4:35 AM0.0 °F0.0 °FNorth
4:55 AM0.0 °F0.0 °FNorth
5:15 AM0.0 °F0.0 °FNorth
5:35 AM48.6 °F41.2 °F76 %29.56 inWSW (250°)13.8 mph
5:55 AM49.1 °F39.0 °F68 %29.58 in10.0 miWSW (250°)11.5 mph28.8 mphMostly Cloudy
6:15 AM48.9 °F37.6 °F65 %29.60 in10.0 miWest (260°)8.1 mphMostly Cloudy
6:35 AM48.4 °F37.4 °F66 %29.62 in10.0 miWest (260°)9.2 mphOvercast
6:55 AM46.8 °F32.2 °F57 %29.64 in10.0 miWest (270°)12.7 mph21.9 mphMostly Cloudy
7:15 AM45.9 °F28.6 °F51 %29.66 in10.0 miWest (270°)17.3 mph29.9 mphScattered Clouds
7:35 AM44.8 °F28.9 °F54 %29.68 in10.0 miWest (270°)15.0 mph21.9 mphClear
7:55 AM44.6 °F28.4 °F53 %29.69 in10.0 miWest (260°)12.7 mph23.0 mphClear
8:15 AM44.1 °F28.2 °F54 %29.72 in10.0 miWSW (250°)15.0 mph24.2 mphClear
8:35 AM43.9 °F28.2 °F54 %29.74 in10.0 miWest (260°)16.1 mph23.0 mphClear
8:55 AM44.2 °F28.0 °F53 %29.75 in10.0 miWest (270°)10.4 mph16.1 mphClear
9:15 AM44.4 °F24.8 °F46 %29.77 in10.0 miWest (260°)13.8 mph24.2 mphClear
9:35 AM43.3 °F20.5 °F40 %29.79 in10.0 miWest (280°)13.8 mph28.8 mphClear
9:55 AM43.7 °F20.8 °F40 %29.80 in10.0 miWest (280°)13.8 mph23.0 mphClear
10:15 AM43.7 °F19.0 °F37 %29.81 in10.0 miWest (280°)17.3 mph26.5 mphClear
10:35 AM44.1 °F20.1 °F39 %29.82 in10.0 miWest (270°)13.8 mph31.1 mphClear
10:55 AM45.3 °F21.0 °F38 %29.82 in10.0 miWest (260°)13.8 mph26.5 mphClear
11:15 AM44.8 °F17.6 °F34 %29.83 in10.0 miWest (270°)16.1 mph27.6 mphClear
11:35 AM45.9 °F19.4 °F35 %29.84 in10.0 miWest (260°)16.1 mph21.9 mphClear
11:55 AM45.9 °F18.7 °F34 %29.84 in10.0 miWest (260°)18.4 mph25.3 mphClear
12:15 PM46.4 °F19.2 °F34 %29.82 in10.0 miWNW (290°)16.1 mph24.2 mphClear
12:35 PM47.5 °F21.9 °F36 %29.82 in10.0 miWSW (240°)16.1 mph20.7 mphScattered Clouds
12:55 PM46.9 °F18.9 °F33 %29.82 in10.0 miWest (260°)16.1 mph21.9 mphScattered Clouds
1:15 PM46.8 °F17.8 °F32 %29.82 in10.0 miWSW (250°)18.4 mph28.8 mphScattered Clouds
1:35 PM46.6 °F17.1 °F31 %29.82 in10.0 miWest (260°)15.0 mph26.5 mphClear
1:55 PM46.8 °F16.3 °F30 %29.82 in10.0 miWest (280°)16.1 mph25.3 mphScattered Clouds
2:15 PM47.1 °F17.2 °F30 %29.82 in10.0 miWSW (250°)18.4 mph25.3 mphClear
2:35 PM48.0 °F18.1 °F31 %29.84 in10.0 miWest (280°)11.5 mph23.0 mphScattered Clouds
2:55 PM47.1 °F15.3 °F28 %29.84 in10.0 miWSW (250°)18.4 mph27.6 mphMostly Cloudy
3:15 PM46.4 °F14.5 °F28 %29.86 in10.0 miWest (260°)20.7 mph29.9 mphScattered Clouds
3:35 PM46.4 °F14.7 °F28 %29.87 in10.0 miWest (260°)18.4 mph28.8 mphScattered Clouds
3:55 PM45.9 °F13.8 °F28 %29.88 in10.0 miWest (270°)17.3 mph26.5 mphScattered Clouds
4:15 PM45.5 °F14.4 °F29 %29.89 in10.0 miWSW (250°)13.8 mph23.0 mphClear
4:35 PM45.5 °F16.3 °F31 %29.90 in10.0 miWest (270°)16.1 mph24.2 mphScattered Clouds
4:55 PM43.7 °F16.0 °F33 %29.91 in10.0 miWest (260°)16.1 mph23.0 mphScattered Clouds
5:15 PM43.3 °F16.0 °F33 %29.91 in10.0 miWest (260°)15.0 mph21.9 mphClear
5:35 PM42.4 °F14.7 °F33 %29.92 in10.0 miWest (260°)10.4 mph21.9 mphClear
5:55 PM41.9 °F14.7 °F33 %29.92 in10.0 miWest (260°)9.2 mph18.4 mphClear
6:15 PM41.2 °F15.6 °F36 %29.94 in10.0 miWest (280°)6.9 mphClear
6:35 PM40.1 °F16.7 °F39 %29.95 in10.0 miWest (280°)4.6 mphClear
6:55 PM39.4 °F16.9 °F40 %29.96 in10.0 miWest (270°)4.6 mphClear
7:15 PM38.3 °F17.4 °F43 %29.96 in10.0 miWSW (240°)4.6 mphClear
7:35 PM37.9 °F17.6 °F44 %29.97 in10.0 miWSW (250°)3.5 mphClear
7:55 PM36.7 °F18.3 °F47 %29.97 in10.0 miWSW (240°)3.5 mphClear
8:15 PM36.9 °F18.7 °F48 %29.97 in10.0 miWSW (240°)6.9 mphClear
8:35 PM37.6 °F18.1 °F45 %29.98 in10.0 miWSW (240°)6.9 mphClear
8:55 PM37.4 °F17.6 °F45 %29.98 in10.0 miSW (230°)5.8 mphClear
9:15 PM36.5 °F17.6 °F46 %29.98 in10.0 miSW (230°)4.6 mphClear
9:35 PM34.9 °F19.2 °F53 %29.98 in10.0 miSW (220°)4.6 mphClear
9:55 PM35.1 °F18.7 °F51 %29.98 in10.0 miSSW (210°)5.8 mphClear
10:15 PM33.4 °F19.6 °F57 %29.97 in10.0 miSSW (210°)5.8 mphClear
10:35 PM33.1 °F20.1 °F59 %29.98 in10.0 miSSW (210°)6.9 mphClear
10:55 PM32.2 °F20.7 °F63 %29.98 in10.0 miSW (220°)6.9 mphClear
11:15 PM32.9 °F20.3 °F60 %29.99 in10.0 miSW (220°)6.9 mphClear
11:35 PM32.9 °F20.5 °F60 %29.99 in10.0 miSSW (210°)6.9 mphClear
11:55 PM32.9 °F20.3 °F60 %29.99 in10.0 miSSW (210°)5.8 mphClear
Hourly data recorded from KHNZ, located miles away from Oxford, North Carolina







STORIES FROM OUR PARTNERS